Miscellaneous Local Product
Issued by NWS North Platte, NE

Home | Current Version | Previous Version | Text Only | Print | Product List | Glossary On
Versions: 1 2 3 4 5 6 7 8 9 10 11 12 13 14 15 16 17 18 19 20 21 22 23 24 25 26 27 28 29 30 31 32 33 34 35 36 37 38 39 40 41 42 43 44 45 46 47 48 49 50
717
AXUS43 KLBF 091610
MISLBF


WESTERN AND NORTH CENTRAL NEBRASKA HOURLY WEATHER ROUNDUP
NATIONAL WEATHER SERVICE NORTH PLATTE NE
1000 AM CST TUE FEB 09 2016

NOTE: "FAIR" INDICATES FEW OR NO CLOUDS BELOW 12,000 FEET WITH NO
SIGNIFICANT WEATHER AND/OR OBSTRUCTIONS TO VISIBILITY.

NOTE: STATIONS NOT REPORTING VARIABLES SUCH AS SKY/WEATHER OR
PRESSURE ARE PROVIDED BY THE NEBRASKA DEPARTMENT OF
ROADS...RAWS...AND APRS NETWORKS...AND ARE NOT UNDER
NATIONAL WEATHER SERVICE QUALITY CONTROL.

...OBSERVATIONS IN AND NEAR THE EASTERN PANHANDLE OF NEBRASKA...

CITY           SKY/WX    TMP DP  RH WIND       PRES   REMARKS
PINE RIDGE     CLOUDY    33  25  72 W6        30.22R WCI  28
CHADRON        CLOUDY    40  29  64 NW18G26   30.24R WCI  31
ALLIANCE       SUNNY     34  27  75 W14       30.20S WCI  25
SIDNEY         SUNNY     37  27  67 NW15      30.25R WCI  28
CRESCENT LAKE    N/A     36  29  74 NW8         N/A  WCI  30
BIG SPRINGS      N/A     27  23  83 W3          N/A
$$

...OBSERVATIONS IN NORTH CENTRAL NEBRASKA...

CITY           SKY/WX    TMP DP  RH WIND       PRES   REMARKS
VALENTINE      CLOUDY    24  15  68 NE6       30.29R WCI  17
THEDFORD       CLOUDY    29  19  66 N8        30.26R WCI  21
AINSWORTH      CLOUDY    23  10  58 N7        30.29R WCI  14
O`NEILL        CLOUDY    22  10  59 N13       30.28S WCI  10
ORD            CLOUDY    24  11  57 N18G24    30.29R WCI  10
BROKEN BOW     CLOUDY    26  18  71 N17G25    30.27R WCI  13
VALENTINE NWR    N/A     24  18  77 NE9         N/A  WCI  14
BUTTE            N/A     21  11  64 NW10        N/A  WCI  10
HALSEY           N/A     27  15  61 N6G14       N/A  WCI  21
CHAMBERS         N/A     24   9  53 MISG        N/A
EWING            N/A     22  11  61 N12G18      N/A  WCI  11
$$

...OBSERVATIONS IN SOUTHWEST NEBRASKA AND FAR NORTHEAST COLORADO...

CITY           SKY/WX    TMP DP  RH WIND       PRES   REMARKS
WRAY           FAIR      40  28  62 NW15      30.25S WCI  32
HOLYOKE        FAIR      43  28  56 NW14G22   30.25R
IMPERIAL         N/A     30  23  75 N7        30.27R WCI  23
OGALLALA       SUNNY     27  20  77 W5        30.25S WCI  21
NORTH PLATTE   CLOUDY    29  20  69 NW8       30.25R WCI  21
MCCOOK         CLOUDY    31  20  63 NW7       30.27R WCI  24
LEXINGTON      CLOUDY    30  19  64 N12       30.27R WCI  21
PAXTON           N/A     25  22  86 W3          N/A
STAPLETON        N/A     30  20  66 CALM        N/A
GOTHENBURG       N/A     29  18  63 NW5         N/A  WCI  24
CALLAWAY         N/A     28  19  69 NE12        N/A  WCI  18
$$

...OBSERVATIONS IN CENTRAL LINCOLN COUNTY AREA...

CITY           SKY/WX    TMP DP  RH WIND       PRES   REMARKS
N.P. AIRPORT   CLOUDY    29  20  69 NW8       30.25R WCI  21
N.P. DOWNTOWN    N/A     30  22  70 CALM        N/A
N.P. SOUTHEAST   N/A     30  20  67 W3          N/A
N.P. HILLCREST   N/A     29  22  75 NW5         N/A  WCI  24
$$

...SOME OBSERVATIONS FROM AROUND THE REGION...

CITY           SKY/WX    TMP DP  RH WIND       PRES   REMARKS
DENVER         CLOUDY    35  21  56 CALM      30.32R
LARAMIE        CLOUDY    26  18  71 E6        30.36S WCI  19
CHEYENNE       SUNNY     40  20  44 NW12G24   30.31R WCI  33
SCOTTSBLUFF    SUNNY     38  26  62 NW12      30.27R WCI  30
RAPID CITY     CLOUDY    33  23  66 SE3       30.18F
BISMARCK       CLOUDY    28  11  48 SW7       30.25S WCI  21
PIERRE         CLOUDY    24   7  48 S3        30.29S
WINNER         CLOUDY    24   7  48 NW3       30.30R
SIOUX FALLS    MOSUNNY   11   1  64 NW13      30.24S WCI  -4
OMAHA          MOSUNNY   15   4  61 N30G40    30.23R WCI  -5
GRAND ISLAND   CLOUDY    23  12  62 N17       30.30R WCI   9
KANSAS CITY    MOSUNNY   20   8  60 N18G28    30.17R WCI   5
WICHITA        PTSUNNY   35  19  52 N22G28    30.26R WCI  23
OKLAHOMA CITY  MOSUNNY   48  11  22 N21G26    30.27R
LIBERAL        SUNNY     48  30  49 NW15      30.29R
HAYS           CLOUDY    36  18  48 N12       30.29R WCI  27
GOODLAND       SUNNY     35  25  66 N10       30.26S WCI  27
$$




USA.gov is the U.S. government's official web portal to all federal, state and local government web resources and services.